METEOR 2-5 DEB, 36911

Orbit data source: Space-Track

METEOR 2-5 DEB, 36911 is space debris in LEO originally from a launch on Wed, 31 Oct 1979 UTC launched from the Plesetsk Missile And Space Complex (PKMTR). Debris objects in space refer to the collection of defunct objects orbiting the Earth. Examples of debris include non-operational satellites, rocket bodies, and fragments generated from explosions, collisions, or faulty payload assembly.

Loading next visibility...
Identifier
36911, 1979-095BC
Orbit
LEO
Country
Flag of CISCIS
Related business
Manufacturer
Unknown
Mission
Spacecraft
Bus & Motor
Unknown
Mass
Unknown
Launch date (UTC)
1979-10-31 (46 years ago)
Launch vehicle
Unknown
Launch site
Plesetsk Missile And Space Complex (PKMTR)
Object type
Payload
Rocket body
Debris
Shape & HBR
Unknown shape, 0.1 m
Radar Cross Section
Small (<0.1 m²)

Expand to show TLE details & history
Last TLE update: 3 days ago

TLE from 3 days ago
0 METEOR 2-5 DEB
1 36911U 79095BC  25291.45340909  .00011107  00000-0  36881-2 0  9991
2 36911  81.1814 359.4404 0010972  34.7722 325.4179 14.37660119635999
Epoch: 2025-10-18T10:52Z
TLE epoch observation values (Epoch: 2025-10-18T10:52:54.545Z)
Latitude
Longitude
169.02892°
Altitude
762.723 km
Speed
7.476 km/s
True Right ascension
23h 57m 45s
True Declination
0° 00' 00"
Sunlit
Object was in full shadow at epoch
Visualization orbit readout
Latitude
Unknown
Longitude
Unknown
Altitude
Unknown
Speed
Unknown
Apparent Right ascension
Unknown
Apparent Declination
Unknown
Sunlit
N/A
Visualization observer readout
Local Sidereal Time
01:19:37
Azimuth
Unknown
Elevation
Unknown
Doppler factor
Unknown
Orbital elements
Apogee altitude
771.216 km
Perigee altitude
755.545 km
Semi-major axis
7,141.517 km
Eccentricity
0.0011
Inclination
81.1814°
RAAN
359.4404°
Arg. of periapsis
34.7722°
True anomaly
325.34646°
Mean anomaly
325.4179°
Eccentric anomaly
325.38219°
Mean motion
3.59631 °/min
Orbital period
100.1 mins
BSTAR
0.0036881
Loading maneuver chart data...
Computing Atmospheric mass density...
Loading historical data...
Loading historical data...
Loading historical data...
Loading historical data...
Loading historical data...
Loading historical data...
Loading historical data...

Documentation

Showing up to 5 results
|